EW6767 Weather Reports


time (UTC)temp
F
wind
direction
speed
knots
gust
knots
rain 1hr
in
rain 24hr
in
rain mn
in
humidity
%
barometer
mb
20260509000111 57 232 0.0 0.0 0.00 0.00 0.00 88 1026.6
20260508234556 57 232 0.0 0.0 0.00 0.00 0.00 87 1026.7
20260508233110 58 232 0.0 0.0 0.00 0.00 0.00 85 1026.7
20260508231554 59 232 0.0 0.0 0.00 0.00 0.00 84 1026.6
20260508230056 60 232 0.0 0.0 0.00 0.00 0.00 81 1026.6
20260508224553 61 232 0.0 0.0 0.00 0.00 0.00 78 1026.4
20260508223052 61 232 0.0 0.0 0.00 0.00 0.00 73 1026.3
20260508221552 62 232 0.0 0.0 0.00 0.00 0.00 72 1026.5
20260508220051 63 232 0.0 0.0 0.00 0.00 0.00 69 1026.5
20260508214550 64 232 0.0 0.0 0.00 0.00 0.00 65 1026.4
20260508213049 66 232 0.0 0.0 0.00 0.00 0.00 60 1026.4
20260508211548 66 56 0.0 0.9 0.00 0.00 0.00 55 1026.6
20260508210047 66 51 0.0 1.7 0.00 0.00 0.00 51 1026.7
20260508204550 67 172 0.0 0.9 0.00 0.00 0.00 51 1027.0
20260508203043 67 231 0.0 1.7 0.00 0.00 0.00 50 1027.1
20260508201542 67 218 0.0 4.3 0.00 0.00 0.00 49 1027.4
20260508200100 67 229 0.0 5.2 0.00 0.00 0.00 48 1027.4
20260508194539 67 232 0.9 2.6 0.00 0.00 0.00 47 1027.6
20260508193046 67 229 0.0 4.3 0.00 0.00 0.00 47 1027.6
20260508191537 69 221 1.7 5.2 0.00 0.00 0.00 44 1027.9
20260508190034 70 224 1.7 7.0 0.00 0.00 0.00 47 1028.1
20260508184530 68 196 2.6 8.7 0.00 0.00 0.00 48 1028.3
20260508183028 69 240 1.7 8.7 0.00 0.00 0.00 48 1028.6
20260508181531 67 238 4.3 8.7 0.00 0.00 0.00 49 1028.9
20260508180024 67 215 1.7 9.6 0.00 0.00 0.00 48 1029.2
20260508174522 67 251 2.6 8.7 0.00 0.00 0.00 50 1029.3
20260508173022 66 226 2.6 7.8 0.00 0.00 0.00 49 1029.5
20260508171519 67 218 0.0 6.1 0.00 0.00 0.00 49 1029.7
20260508170018 68 139 1.7 9.6 0.00 0.00 0.00 46 1029.9
20260508164515 68 222 0.9 6.1 0.00 0.00 0.00 49 1030.3
20260508163019 68 225 2.6 7.0 0.00 0.00 0.00 47 1030.5
20260508161516 67 286 2.6 7.0 0.00 0.00 0.00 48 1030.6
20260508160011 67 255 1.7 8.7 0.00 0.00 0.00 48 1030.8
20260508154531 67 236 2.6 9.6 0.00 0.00 0.00 48 1030.9
20260508153006 66 226 2.6 6.1 0.00 0.00 0.00 50 1031.1
20260508151508 64 246 1.7 7.0 0.00 0.00 0.00 55 1031.2
20260508150002 65 264 0.0 5.2 0.00 0.00 0.00 53 1031.3
20260508144610 65 226 0.0 4.3 0.00 0.00 0.00 53 1031.2
20260508143102 62 229 1.7 7.0 0.00 0.00 0.00 56 1031.5
20260508141558 60 252 2.6 7.0 0.00 0.00 0.00 58 1031.8
20260508140049 59 259 0.0 6.1 0.00 0.00 0.00 60 1031.9
20260508134557 57 219 0.0 3.5 0.00 0.00 0.00 61 1032.1
20260508133050 56 231 1.7 6.1 0.00 0.00 0.00 63 1032.1
20260508131538 54 259 0.0 3.5 0.00 0.00 0.00 67 1032.0
20260508130034 53 226 1.7 7.0 0.00 0.00 0.00 67 1032.0
20260508124534 52 236 0.9 2.6 0.00 0.00 0.00 70 1031.9
20260508123042 51 233 2.6 5.2 0.00 0.00 0.00 71 1032.0
20260508121528 49 233 0.0 2.6 0.00 0.00 0.00 75 1032.0
20260508120017 48 225 0.0 1.7 0.00 0.00 0.00 78 1032.0
20260508114512 47 257 0.0 0.9 0.00 0.00 0.00 81 1031.9
20260508113018 46 257 0.0 0.0 0.00 0.00 0.00 82 1031.8
20260508111509 46 257 0.0 0.0 0.00 0.00 0.00 83 1031.6
20260508110008 45 252 0.0 0.0 0.00 0.00 0.00 84 1031.6
20260508104507 45 252 0.0 0.9 0.00 0.00 0.00 83 1031.4
20260508103007 45 281 0.0 0.9 0.00 0.00 0.00 84 1031.3
20260508101503 45 276 0.0 0.9 0.00 0.00 0.00 85 1031.5
20260508100002 43 276 0.0 0.9 0.00 0.00 0.00 89 1031.6
20260508094608 42 214 0.0 0.0 0.00 0.00 0.00 91 1031.5
20260508093058 41 214 0.0 0.0 0.00 0.00 0.00 90 1031.7
20260508091605 41 214 0.0 0.9 0.00 0.00 0.00 90 1031.8
20260508090114 42 214 0.0 0.0 0.00 0.00 0.00 91 1031.8
20260508084556 41 214 0.0 0.0 0.00 0.00 0.00 91 1031.7
20260508083055 41 214 0.0 0.0 0.00 0.00 0.00 90 1031.7
20260508081605 41 214 0.0 0.0 0.00 0.00 0.00 90 1031.8
20260508080059 41 214 0.0 0.0 0.00 0.00 0.00 89 1031.7
20260508074551 41 214 0.0 0.0 0.00 0.00 0.00 89 1031.6
20260508073106 42 214 0.0 0.0 0.00 0.00 0.00 88 1031.5
20260508071548 42 214 0.0 0.0 0.00 0.00 0.00 88 1031.7
20260508070049 42 214 0.0 0.0 0.00 0.00 0.00 88 1031.8
20260508064549 42 214 0.0 0.9 0.00 0.00 0.00 88 1031.9
20260508063045 42 214 0.0 0.0 0.00 0.00 0.00 87 1032.1
20260508061545 43 214 0.0 0.0 0.00 0.00 0.00 87 1032.1
20260508060100 43 214 0.0 0.9 0.00 0.00 0.00 88 1032.0
20260508054542 43 214 0.0 0.0 0.00 0.00 0.00 88 1032.1
20260508053040 44 214 0.0 0.0 0.00 0.00 0.00 87 1032.3
20260508051556 44 214 0.0 0.0 0.00 0.00 0.00 87 1032.2
20260508050038 44 214 0.0 0.9 0.00 0.00 0.00 88 1032.2
20260508044540 44 214 0.0 0.0 0.00 0.00 0.00 88 1032.2
20260508043035 43 214 0.0 0.0 0.00 0.00 0.00 87 1032.1
20260508041534 43 214 0.0 0.0 0.00 0.00 0.00 86 1032.0
20260508040037 44 214 0.0 0.0 0.00 0.00 0.00 85 1031.9
20260508034541 45 214 0.0 0.0 0.00 0.00 0.00 83 1032.0
20260508033030 46 214 0.0 0.9 0.00 0.00 0.00 82 1031.9
20260508031535 47 214 0.0 0.9 0.00 0.00 0.00 81 1031.9
20260508030029 47 214 0.0 0.0 0.00 0.00 0.00 81 1031.9
20260508024550 47 214 0.0 0.0 0.00 0.00 0.00 81 1031.8
20260508023027 47 214 0.0 0.9 0.00 0.00 0.00 80 1031.7
20260508021528 47 214 0.0 0.0 0.00 0.00 0.00 81 1031.7
20260508020027 47 214 0.0 0.0 0.00 0.00 0.00 78 1031.6
20260508014526 48 214 0.0 0.0 0.00 0.00 0.00 78 1031.7
20260508013032 48 214 0.0 0.0 0.00 0.00 0.00 76 1031.6
20260508011531 49 214 0.0 0.9 0.00 0.00 0.00 74 1031.6
20260508010025 50 214 0.0 0.0 0.00 0.00 0.00 70 1031.6
20260508004538 51 214 0.0 0.0 0.00 0.00 0.00 68 1031.6
20260508003024 52 214 0.0 0.0 0.00 0.00 0.00 65 1031.6
20260508001533 54 214 0.0 0.0 0.00 0.00 0.00 64 1031.3